sat.trackr.live / text

‹ back to catalog

GALAXY 13 (HORIZONS-1)

NORAD 27954 · 2003-044A

PAYLOAD ACTIVE UNKNOWN

§ Identity

Operator
Country
US
Launch date
2003-10-01
Launch site
SEAL
Launch vehicle
Mass (kg)
RCS (m²)
25.41

Purposes: comms

External: N2YO · Heavens-Above · Gunter

§ Orbital elements

Epoch: 2026-05-25T04:06:38.661120Z

Period
1,436.08 min
Inclination
1.3603°
Eccentricity
0.0002158
Mean motion
1.00272939 rev/d
Perigee alt
35,777.2 km
Apogee alt
35,795.4 km
Semi-major
42,164.4 km
B*
0.0000e+0
RAAN
84.1301°
Arg perigee
337.6265°
Mean anomaly
92.6703°
Rev number
4,634

§ Raw data

GALAXY 13 (HORIZONS-1)1 27954U 03044A   26145.17128080  .00000131  00000+0  00000+0 0  99962 27954   1.3603  84.1301 0002158 337.6265  92.6703  1.00272939 46344

JSON: /api/v1/satellites/27954 · /tle

For live sub-satellite position, see the globe view (requires WebGL).

§ Visibility from observer

Set your observer location to see the next 7 days of passes ≥ 10°. The values pass through the URL so the page stays shareable.

No JS? Fill the form by hand. The geolocation button needs JavaScript.